Location: Solstice Park, West Seattle
(47.5363°N, 122.3905°W)
Time: 08:53:21
(UTC-07:00)

ISS - Pass Details

Date: 21 May 2021
Orbit: 417 x 422 km, 51.6° (Epoch: 18 June)

Event Time Altitude Azimuth Distance (km) Brightness Sun altitude
Rises 00:50:16 0° 294° (WNW) 2,371 0.4 -22.1°
Reaches altitude 10° 00:52:22 10° 294° (WNW) 1,506 -0.6 -22.1°
Enters shadow 00:54:33 37° 296° (WNW) 670 -2.6 -22.2°
